Regional Weather Roundup
Issued by NWS

Home | Current Version | Previous Version | Text Only | Print | Product List | Glossary On
Versions: 1 2 3 4 5 6 7 8 9 10 11 12 13 14 15 16 17 18 19 20 21 22 23 24 25 26 27 28
000
ASUS45 KCYS 161610
RWRWY

WYOMING REGIONAL WEATHER ROUNDUP
NATIONAL WEATHER SERVICE CHEYENNE WY
900 AM MST TUE JAN 16 2018

NOTE:  "FAIR" INDICATES FEW OR NO CLOUDS BELOW 12,000 FEET
WITH NO SIGNIFICANT WEATHER AND/OR OBSTRUCTIONS TO VISIBILITY.

WYZ001-161700-
YELLOWSTONE NATIONAL PARK

CITY           SKY/WX    TMP DP  RH WIND       PRES   REMARKS
LK YELLOWSTONE   N/A     -9 -13  83 CALM      30.36R
W YELLOWSTONE  NOT AVBL

$$
WYZ002>013-054>058-071-098>099-161700-
NORTHERN WYOMING

CITY           SKY/WX    TMP DP  RH WIND       PRES   REMARKS
JACKSON        CLOUDY     7   4  87 CALM      30.42R
CODY           FAIR      14  10  84 CALM      30.28F
GREYBULL       FAIR      -7 -10  87 CALM      30.39F
WORLAND        FAIR      -8  -9  95 CALM      30.36F
SHERIDAN       FAIR      -4  -9  79 CALM      30.30S
BUFFALO        FAIR      16  -5  39 S6        30.25F WCI   7
GILLETTE         N/A      8  -1  66 MISG      30.33F
HULETT         FAIR       5  -6  61 MISG      30.35F
NEWCASTLE      FAIR      -2 -13  60 SE3       30.46S

$$
WYZ014>020-022>026-101>103-161700-
CENTRAL WYOMING

CITY           SKY/WX    TMP DP  RH WIND       PRES   REMARKS
BIG PINEY      FAIR      15  11  83 N5        30.38S WCI   8
PINEDALE       FAIR       5   3  92 NW5       30.39S WCI  -4
DUBOIS         FAIR      16   3  57 NW10      30.27S WCI   3
LANDER         CLOUDY    12   9  87 CALM      30.35F
RIVERTON       PTSUNNY   14   7  73 CALM      30.37S
CASPER         FAIR      17  -1  45 SW15      30.36S WCI   2
DOUGLAS        FAIR       0  -5  79 CALM      30.41F

$$
WYZ021-027>030-104>119-161700-
SOUTHERN WYOMING

CITY           SKY/WX    TMP DP  RH WIND       PRES   REMARKS
EVANSTON       FAIR      14  10  84 E6        30.36S WCI   5
FORT BRIDGER   FAIR      12  12 100 CALM      30.40S
ROCK SPRINGS   FAIR      10   2  69 NE6       30.39R WCI   0
DIXON            N/A      9  -4  54 SE7       30.46R WCI  -2
RAWLINS        FAIR       9   2  73 CALM      30.39R
SARATOGA         N/A     14  -8  37 S13G21    30.39  WCI   0
LARAMIE        FAIR       7  -4  60 S7        30.34R WCI  -5
CHEYENNE       FAIR      10  -2  58 SW5       30.37R WCI   2
TORRINGTON     FAIR       1  -4  79 CALM      30.48F

$$




USA.gov is the U.S. government's official web portal to all federal, state and local government web resources and services.